Location: Home
(42.5358°N, 72.7383°W)
Time: 09:17:49
(UTC-04:00)

A-11 Canister half - Pass Details

Date: 30 June 2022
Orbit: 1514 x 1685 km, 47.2° (Epoch: 15 August)

Event Time Altitude Azimuth Distance (km) Brightness Sun altitude
Rises 23:46:55 0° 241° (WSW) 4,931 11.5 -22.5°
Reaches altitude 10° 23:50:04 10° 242° (WSW) 3,945 11.0 -22.6°
Maximum altitude 00:00:17 87° 154° (SSE) 1,676 9.0 -23.1°
Drops below altitude 10° 00:10:18 10° 67° (ENE) 3,876 11.2 -23.5°
Sets 00:13:23 0° 67° (ENE) 4,843 11.8 -23.6°
